Flag for Germany Weather past 2 weeks in Ravensburg, Baden-Württemberg, Germany

Now
52 °F

Passing clouds.


Feels Like: 52 °F
Forecast: 38 / 59 °F
Wind: 2 mph from North

Location: Friedrichshafen Airport

Current Time: Sep 22, 2014 at 7:10:56 AM

Latest Report: Sep 22, 2014 at 6:20 AM


Visibility: N/A

Pressure: 30.09 "Hg

Humidity: 88%

Dew point: 48 °F

Location of RavensburgLocation

Historic Weather in Ravensburg — Graph

°F

Ravensburg temperature yesterday

Maximum temperature yesterday: 70 °F (at 1:50 PM)
Minimum temperature yesterday: 55 °F (at 3:50 AM)
Average temperature yesterday: 60 °F

Past Weeks' High & Low Weather Summary

 TemperatureHumidityPressure
High79 °F (Sep 8, 3:50 PM)94% (Sep 7, 5:50 AM)30.15 "Hg (Sep 7, 5:50 AM)
Low48 °F (Sep 12, 6:20 AM)42% (Sep 7, 5:20 PM)29.86 "Hg (Sep 17, 4:20 PM)
Average61 °F78%30.01 "Hg
* Reported Sep 7 5:20 AM — Sep 22 5:50 AM, Ravensburg, Weather by CustomWeather, © 2014

Note: Actual official high and low records may vary slightly from our data, if they occured in-between our weather recording intervals... More about our weather records

Advertising

Ravensburg weather history for previous 24 hours

 ConditionsComfort  
Time TempWeatherWind HumidityBarometerVisibility
5:50 AM
Sep 22
52 °FPassing clouds.2 mph88%30.09 "Hg4 mi
5:20 AM54 °FPassing clouds.2 mph88%30.09 "HgN/A
4:50 AM55 °FMostly cloudy.No wind88%30.09 "HgN/A
4:20 AM55 °FOvercast.2 mph88%30.09 "HgN/A
3:55 AM55 °FSprinkles. Overcast.2 mph88%30.09 "HgN/A
3:20 AM55 °FSprinkles. Mostly cloudy.1 mph88%30.09 "HgN/A
2:55 AM55 °FSprinkles. Overcast.No wind88%30.09 "HgN/A
2:20 AM55 °FLight rain. Mostly cloudy.No wind88%30.09 "HgN/A
1:50 AM55 °FLight rain. Mostly cloudy.No wind88%30.09 "Hg6 mi
1:20 AM55 °FLight rain. Mostly cloudy.2 mph88%30.09 "HgN/A
12:50 AM55 °FCool.1 mph88%30.09 "HgN/A
12:20 AM55 °FLight rain. Mostly cloudy.2 mph82%30.09 "HgN/A
11:50 PM
Sep 21
55 °FLight rain. Mostly cloudy.3 mph82%30.07 "HgN/A
11:20 PM55 °FRain showers. Overcast.2 mph88%30.07 "Hg6 mi
10:50 PM57 °FSprinkles. Mostly cloudy.3 mph82%30.07 "HgN/A
10:20 PM57 °FMostly cloudy.3 mph88%30.04 "HgN/A
9:50 PM59 °FLight rain. Mostly cloudy.6 mph88%30.01 "HgN/A
9:20 PM59 °FRain. Mostly cloudy.6 mph88%30.01 "Hg4 mi
8:20 PM61 °FOvercast.10 mph83%30.01 "HgN/A
7:50 PM61 °FMore clouds than sun.7 mph83%30.01 "HgN/A
7:20 PM61 °FPartly sunny.7 mph83%30.01 "HgN/A
6:50 PM61 °FLight rain. Scattered clouds.6 mph83%30.01 "HgN/A
6:20 PM61 °FLight rain. Broken clouds.2 mph88%30.01 "HgN/A
5:50 PM61 °FSprinkles. Partly sunny.3 mph88%30.01 "HgN/A
5:20 PM61 °FSprinkles. Broken clouds.7 mph83%30.01 "HgN/A
4:50 PM61 °FPartly sunny.6 mph83%30.01 "HgN/A
4:20 PM61 °FLight rain. Partly sunny.9 mph83%30.01 "HgN/A
3:50 PM61 °FSprinkles. Broken clouds.12 mph83%30.01 "HgN/A
3:20 PM63 °FThundershowers. Partly sunny.10 mph77%30.01 "Hg5 mi
2:50 PM66 °FPartly sunny.7 mph68%29.98 "HgN/A
2:20 PM68 °FBroken clouds.7 mph64%29.98 "HgN/A
1:50 PM70 °FPassing clouds.8 mph60%30.01 "HgN/A
1:20 PM68 °FScattered clouds.8 mph64%30.01 "HgN/A
12:50 PM66 °FScattered clouds.7 mph68%30.04 "HgN/A
12:20 PM66 °FSunny.7 mph64%30.04 "Hg10 mi
11:50 AM64 °FSunny.7 mph68%30.04 "Hg10 mi
11:20 AM64 °FScattered clouds.7 mph73%30.04 "HgN/A
10:50 AM63 °FSprinkles. Partly sunny.9 mph77%30.04 "HgN/A
10:20 AM63 °FPartly sunny.5 mph77%30.04 "HgN/A
9:50 AM63 °FBroken clouds.5 mph83%30.04 "HgN/A
9:20 AM61 °FBroken clouds.No wind83%30.04 "HgN/A
8:50 AM61 °FSprinkles. Broken clouds.5 mph83%30.04 "HgN/A
8:20 AM61 °FSprinkles. More clouds than sun.7 mph83%30.04 "HgN/A
7:50 AM59 °FPassing clouds.2 mph88%30.04 "HgN/A
7:20 AM57 °FSprinkles. Overcast.1 mph94%30.04 "Hg6 mi
Weather by CustomWeather, © 2014

See weather overviewHow to use our weather pages